Miscellaneous Local Product
Issued by NWS Hastings, NE

Home | Current Version | Previous Version | Graphics & Text | Print | Product List | Glossary On
Versions: 1 2 3 4 5 6 7 8 9 10 11 12 13 14 15 16 17 18 19 20 21 22 23 24 25 26 27 28 29 30 31 32 33 34 35 36 37 38 39 40 41 42 43 44 45 46 47 48 49 50
000
AXUS43 KGID 020302
MISGRI

GID CWA HOURLY WEATHER ROUNDUP
NATIONAL WEATHER SERVICE HASTINGS NE
1000 PM CDT SAT AUG 01 2015

NOTE: "FAIR" INDICATES FEW OR NO CLOUDS BELOW 12,000 FEET WITH NO
SIGNIFICANT WEATHER AND/OR OBSTRUCTIONS TO VISIBILITY.

...SOUTH CENTRAL NEBRASKA...

CITY           SKY/WX    TMP DP  RH WIND       PRES   REMARKS
GRAND ISLAND   CLOUDY    73  68  84 S6        29.94R
HASTINGS       CLOUDY    78  69  73 SE8       29.95R
KEARNEY        CLOUDY    73  64  73 S5        29.95R
ORD            PTCLDY    68  64  87 CALM      29.92R
YORK           CLOUDY    73  68  83 CALM      29.93R
AURORA         CLOUDY    75  70  83 S5        29.94R
LEXINGTON      CLOUDY    75  66  74 S5        29.96S
HOLDREGE       MOCLDY    73  65  78 SE3       29.96R
HEBRON         PTCLDY    75  68  79 CALM      29.92R

...NEBRASKA PANHANDLE...

CITY           SKY/WX    TMP DP  RH WIND       PRES   REMARKS
CHADRON        CLEAR     79  60  52 SE13      29.94R
ALLIANCE       CLEAR     69  61  75 S9        30.00R
SCOTTSBLUFF    PTCLDY    71  58  63 MISG      30.02R
SIDNEY         PTCLDY    73  54  51 SE17      30.07R

...WESTERN AND NORTH CENTRAL NEBRASKA...

CITY           SKY/WX    TMP DP  RH WIND       PRES   REMARKS
VALENTINE      CLEAR     70  61  73 SW9       29.94R
AINSWORTH      PTCLDY    71  62  72 SW9       29.96R
ONEILL         MOCLDY    71  63  74 S8        29.92R
BROKEN BOW     MOCLDY    73  62  68 CALM      29.94F
IMPERIAL       CLOUDY    79  48  33 NW13      30.07S
NORTH PLATTE   CLOUDY    71  64  78 SE8       29.94F
MCCOOK         PTCLDY    78  56  46 SW6       29.98R

...EASTERN NEBRASKA...

CITY           SKY/WX    TMP DP  RH WIND       PRES   REMARKS
NORFOLK        PTCLDY    69  65  86 S3        29.91R
SO SIOUX CITY  CLEAR     71  65  81 SE5       29.88S
TEKAMAH        CLEAR     71  69  93 S5        29.89R
COLUMBUS       PTCLDY    66  61  82 CALM      29.92R
ALBION         CLEAR     69  63  81 CALM      29.93R
OMAHA EPPLEY   PTCLDY    76  71  85 SE8       29.90R
MILLARD        CLEAR     77  71  82 SE3       29.90R
LINCOLN        MOCLDY    77  63  61 S5        29.92R
NEBRASKA CITY  MOCLDY    75  69  80 S5        29.93R
BEATRICE       CLOUDY    78  73  86 E3        29.93R
FALLS CITY     MOCLDY    78  74  87 SE3       29.92R

...NORTHERN KANSAS...

CITY           SKY/WX    TMP DP  RH WIND       PRES   REMARKS
GOODLAND       MOCLDY    72  58  61 S7        30.05R
HILL CITY      CLEAR     78  60  53 S6        29.97R
NORTON         CLEAR     75  55  50 S6        29.97R
PHILLIPSBURG   CLEAR     81  63  54 S6        29.95R
SMITH CENTER   CLEAR     75  63  64 S9        29.95R
HAYS           CLEAR     77  61  57 S8        29.98R
RUSSELL        CLEAR     77  65  66 S8        29.96R
CONCORDIA      CLEAR     78  62  57 S12       29.94R
SALINA         CLEAR     80  68  66 S6        29.95R
TOPEKA         CLEAR     80  70  71 SE12      29.94R



USA.gov is the U.S. government's official web portal to all federal, state and local government web resources and services.